This is the latest recevied weather packets stored in our database for station/object DG4CB-13. If no packets are shown the sender has not sent any weather packets the latest 10 day(s).
| Time | Temp. | Humidity | Pressure | Rain* | Wind** | Luminosity | Snow |
|---|---|---|---|---|---|---|---|
| 1777673400 | 13.33° C | 49% | 1022.3 hPa | - | - | - | - |
| 1777672800 | 13.33° C | 49% | 1022.3 hPa | - | - | - | - |
| 1777672200 | 13.89° C | 48% | 1022.2 hPa | - | - | - | - |
| 1777671600 | 13.89° C | 48% | 1022.2 hPa | - | - | - | - |
| 1777671000 | 14.44° C | 46% | 1022.2 hPa | - | - | - | - |
| 1777670400 | 15° C | 47% | 1022.2 hPa | - | - | - | - |
| 1777669800 | 15° C | 46% | 1022.2 hPa | - | - | - | - |
| 1777669200 | 15.56° C | 46% | 1022.2 hPa | - | - | - | - |
| 1777668600 | 15.56° C | 45% | 1022.1 hPa | - | - | - | - |
| 1777668000 | 16.11° C | 45% | 1022.1 hPa | - | - | - | - |
| 1777667400 | 16.67° C | 44% | 1022.2 hPa | - | - | - | - |
| 1777666800 | 17.78° C | 41% | 1022.2 hPa | - | - | - | - |
| 1777666200 | 17.78° C | 40% | 1022.2 hPa | - | - | - | - |
| 1777665600 | 18.33° C | 40% | 1022.2 hPa | - | - | - | - |
| 1777665000 | 18.89° C | 38% | 1022.2 hPa | - | - | - | - |
| 1777664400 | 19.44° C | 36% | 1022.2 hPa | - | - | - | - |
| 1777663800 | 20.56° C | 34% | 1022.2 hPa | - | - | - | - |
| 1777663200 | 21.11° C | 33% | 1022.1 hPa | - | - | - | - |
| 1777662600 | 22.22° C | 31% | 1022.1 hPa | - | - | - | - |
| 1777662000 | 22.78° C | 26% | 1022.1 hPa | - | - | - | - |
| 1777661400 | 23.89° C | 25% | 1022 hPa | - | - | - | - |
| 1777660800 | 25° C | 25% | 1022 hPa | - | - | - | - |
| 1777660200 | 25.56° C | 25% | 1021.9 hPa | - | - | - | - |
| 1777659600 | 26.11° C | 25% | 1021.9 hPa | - | - | - | - |
| 1777659000 | 26.67° C | 24% | 1021.9 hPa | - | - | - | - |
* Rain since midnight (hover to see other rain measurements)
** Current wind speed in m/s (hover to see current wind gust speed)